Hillsdale, MI

10:50 AM EDT on March 23, 2017 (GMT -0400)
Hillsdale Municipal

Weather History for KJYM - October, 2012

Change the Weather History Date:

Monday, October 29, 2012

  Actual Average Record
Temperature  
Mean Temperature 39 °F -  
Max Temperature 43 °F 56 °F 74 °F (1971)
Min Temperature 35 °F 33 °F 18 °F (1965)
Degree Days  
Heating Degree Days 26    
Moisture  
Dew Point 24 °F    
Average Humidity 54    
Maximum Humidity 70    
Minimum Humidity 36    
Precipitation  
Precipitation 0.00 in - - ()
Sea Level Pressure  
Sea Level Pressure 30.00 in    
Wind  
Wind Speed 15 mph (NNW)    
Max Wind Speed 25 mph    
Max Gust Speed 41 mph    
Visibility 10 miles    
Events      
Averages and records for this station are not official NWS values.
T = Trace of Precipitation, MM = Missing Value Source: NWS Daily Summary

Daily Weather History Graph

Daily Weather History Graph

Search for Another Location

Airport or City:

Trip Planner

Search our weather history database for the weather conditions in past years. The results will help you decide how hot, cold, wet, or windy it might be!

Date:

Astronomy

Oct. 29, 2012 Rise Set
Actual Time 8:07 AM EDT 6:35 PM EDT
Civil Twilight 7:38 AM EDT 7:04 PM EDT
Nautical Twilight 7:06 AM EDT 7:37 PM EDT
Astronomical Twilight 6:33 AM EDT 8:09 PM EDT
Moon 6:26 PM EDT (10/29) 7:57 AM EDT (10/29)
Length of Visible Light 11h 25m
Length of Day
10h 27m
Full, 100% of the Moon is Illuminated
Oct 29
Full
Oct 29
Full
Nov 6
Last Quarter
Nov 13
New
Nov 20
First Quarter

Hourly Weather History & Observations

Time (EDT) Temp. Windchill Dew Point Humidity Pressure Visibility Wind Dir Wind Speed Gust Speed Precip Events Conditions
12:15 AM 39.0 °F 32.8 °F 24.1 °F 55% 30.12 in 10.0 mi North 9.2 mph 12.7 mph N/A   Clear
12:35 AM 38.8 °F 31.6 °F 23.9 °F 55% 30.11 in 10.0 mi North 11.5 mph 17.3 mph N/A   Clear
12:54 AM 38.8 °F 31.6 °F 23.9 °F 55% 30.11 in 10.0 mi North 11.5 mph 16.1 mph N/A   Clear
1:15 AM 38.7 °F 31.8 °F 24.3 °F 56% 30.11 in 10.0 mi North 10.4 mph - N/A   Clear
1:34 AM 38.7 °F 30.9 °F 24.4 °F 57% 30.11 in 10.0 mi North 12.7 mph 19.6 mph N/A   Clear
1:54 AM 38.7 °F 31.4 °F 24.8 °F 58% 30.10 in 10.0 mi North 11.5 mph - N/A   Clear
2:15 AM 38.3 °F 30.5 °F 24.6 °F 58% 30.10 in 10.0 mi North 12.7 mph - N/A   Clear
2:34 AM 37.8 °F 30.2 °F 24.4 °F 59% 30.09 in 10.0 mi North 11.5 mph 17.3 mph N/A   Clear
2:55 AM 37.4 °F 29.3 °F 25.2 °F 61% 30.09 in 10.0 mi North 12.7 mph 19.6 mph N/A   Clear
3:15 AM 36.9 °F 29.1 °F 25.3 °F 63% 30.09 in 10.0 mi North 11.5 mph 17.3 mph N/A   Clear
3:34 AM 36.7 °F 28.0 °F 25.5 °F 64% 30.09 in 10.0 mi North 13.8 mph 19.6 mph N/A   Clear
3:55 AM 36.7 °F 28.4 °F 25.9 °F 65% 30.09 in 10.0 mi North 12.7 mph - N/A   Clear
4:15 AM 36.9 °F 28.2 °F 26.1 °F 65% 30.08 in 10.0 mi North 13.8 mph 17.3 mph N/A   Clear
4:34 AM 36.7 °F 28.9 °F 26.2 °F 66% 30.08 in 10.0 mi North 11.5 mph 21.9 mph N/A   Clear
4:55 AM 36.5 °F 28.2 °F 26.4 °F 67% 30.08 in 10.0 mi North 12.7 mph 18.4 mph N/A   Clear
5:14 AM 36.1 °F 26.9 °F 26.4 °F 68% 30.08 in 10.0 mi North 15.0 mph 18.4 mph N/A   Clear
5:34 AM 36.0 °F 27.5 °F 26.6 °F 69% 30.08 in 10.0 mi NNW 12.7 mph 20.7 mph N/A   Clear
5:55 AM 36.0 °F 28.0 °F 26.8 °F 69% 30.08 in 10.0 mi NNW 11.5 mph 19.6 mph N/A   Clear
6:14 AM 36.0 °F 26.7 °F 26.8 °F 69% 30.08 in 10.0 mi NNW 15.0 mph 21.9 mph N/A   Clear
7:14 AM 35.4 °F 26.4 °F 26.4 °F 70% 30.08 in 10.0 mi NNW 13.8 mph 20.7 mph N/A   Scattered Clouds
7:34 AM 35.4 °F 26.0 °F 26.2 °F 69% 30.08 in 10.0 mi North 15.0 mph 26.5 mph N/A   Clear
7:54 AM 35.6 °F 26.6 °F 26.2 °F 69% 30.08 in 10.0 mi NNW 13.8 mph 21.9 mph N/A   Clear
8:15 AM 36.0 °F 26.3 °F 26.4 °F 68% 30.08 in 10.0 mi NNW 16.1 mph 23.0 mph N/A   Clear
8:34 AM 36.0 °F 26.3 °F 26.4 °F 68% 30.08 in 10.0 mi NNW 16.1 mph 23.0 mph N/A   Clear
8:54 AM 36.0 °F 26.3 °F 26.2 °F 68% 30.08 in 10.0 mi North 16.1 mph 23.0 mph N/A   Clear
9:15 AM 36.7 °F 26.9 °F 26.4 °F 66% 30.08 in 10.0 mi North 17.3 mph 23.0 mph N/A   Clear
9:34 AM 36.9 °F 27.1 °F 26.4 °F 66% 30.08 in 10.0 mi North 17.3 mph 23.0 mph N/A   Clear
9:55 AM 37.0 °F 28.9 °F 26.4 °F 65% 30.07 in 10.0 mi North 12.7 mph 21.9 mph N/A   Clear
10:15 AM 37.2 °F 29.1 °F 26.6 °F 65% 30.07 in 10.0 mi North 12.7 mph 24.2 mph N/A   Clear
10:34 AM 37.8 °F 27.4 °F 26.4 °F 64% 30.07 in 10.0 mi North 20.7 mph 25.3 mph N/A   Clear
10:55 AM 37.8 °F 28.3 °F 26.4 °F 64% 30.07 in 10.0 mi North 17.3 mph 25.3 mph N/A   Clear
11:14 AM 38.1 °F 28.4 °F 26.6 °F 63% 30.06 in 10.0 mi NNW 18.4 mph 24.2 mph N/A   Scattered Clouds
11:35 AM 38.7 °F 29.8 °F 27.0 °F 63% 30.06 in 10.0 mi NNW 16.1 mph 23.0 mph N/A   Scattered Clouds
11:55 AM 38.8 °F 29.1 °F 27.0 °F 62% 30.06 in 10.0 mi North 19.6 mph 26.5 mph N/A   Scattered Clouds
12:14 PM 39.4 °F 30.1 °F 27.1 °F 62% 30.06 in 10.0 mi North 18.4 mph 29.9 mph N/A   Scattered Clouds
12:35 PM 39.6 °F 30.0 °F 27.0 °F 61% 30.05 in 10.0 mi NNW 19.6 mph 26.5 mph N/A   Scattered Clouds
12:55 PM 39.7 °F 31.2 °F 27.1 °F 61% 30.04 in 10.0 mi NNW 16.1 mph 31.1 mph N/A   Scattered Clouds
1:35 PM 40.3 °F 31.6 °F 26.8 °F 59% 30.03 in 10.0 mi North 17.3 mph 27.6 mph N/A   Clear
1:54 PM 40.6 °F 31.7 °F 27.1 °F 59% 30.03 in 10.0 mi NNW 18.4 mph 26.5 mph N/A   Scattered Clouds
2:14 PM 40.8 °F 32.0 °F 27.0 °F 58% 30.01 in 10.0 mi North 18.4 mph 28.8 mph N/A   Scattered Clouds
2:34 PM 41.4 °F 32.7 °F 27.0 °F 57% 30.01 in 10.0 mi NNW 18.4 mph 26.5 mph N/A   Clear
2:54 PM 41.7 °F 33.7 °F 26.8 °F 55% 30.00 in 10.0 mi North 16.1 mph 28.8 mph N/A   Scattered Clouds
3:15 PM 41.7 °F 33.4 °F 25.7 °F 53% 29.99 in 10.0 mi NNW 17.3 mph 29.9 mph N/A   Scattered Clouds
3:34 PM 41.7 °F 32.3 °F 24.4 °F 50% 29.99 in 10.0 mi NNW 21.9 mph 31.1 mph N/A   Scattered Clouds
3:54 PM 42.3 °F 33.3 °F 23.5 °F 48% 29.98 in 10.0 mi North 20.7 mph 28.8 mph N/A   Scattered Clouds
4:15 PM 42.6 °F 34.3 °F 22.6 °F 45% 29.97 in 10.0 mi NNW 18.4 mph 29.9 mph N/A   Clear
4:34 PM 43.0 °F 34.5 °F 21.9 °F 43% 29.97 in 10.0 mi NNW 19.6 mph 29.9 mph N/A   Clear
4:55 PM 43.0 °F 34.2 °F 21.0 °F 42% 29.96 in 10.0 mi NNW 20.7 mph 28.8 mph N/A   Clear
5:15 PM 43.2 °F 34.7 °F 20.7 °F 41% 29.94 in 10.0 mi NNW 19.6 mph 26.5 mph N/A   Clear
5:35 PM 43.2 °F 35.0 °F 20.5 °F 40% 29.94 in 10.0 mi North 18.4 mph 27.6 mph N/A   Scattered Clouds
5:54 PM 43.0 °F 36.4 °F 20.3 °F 40% 29.94 in 10.0 mi NNW 12.7 mph 28.8 mph N/A   Scattered Clouds
6:15 PM 43.2 °F 35.0 °F 19.6 °F 39% 29.93 in 10.0 mi NNW 18.4 mph 29.9 mph N/A   Mostly Cloudy
6:34 PM 43.2 °F 34.2 °F 18.9 °F 38% 29.92 in 10.0 mi NNW 21.9 mph 31.1 mph N/A   Mostly Cloudy
6:54 PM 43.0 °F 34.0 °F 18.3 °F 37% 29.91 in 10.0 mi NNW 21.9 mph 28.8 mph N/A   Scattered Clouds
7:14 PM 43.2 °F 34.7 °F 18.0 °F 36% 29.90 in 10.0 mi NNW 19.6 mph 31.1 mph N/A   Clear
7:34 PM 43.2 °F 34.5 °F 18.0 °F 36% 29.89 in 10.0 mi North 20.7 mph 33.4 mph N/A   Clear
7:54 PM 43.2 °F 33.8 °F 18.0 °F 36% 29.88 in 10.0 mi NNW 24.2 mph 31.1 mph N/A   Clear
8:15 PM 43.0 °F 34.2 °F 18.3 °F 37% 29.87 in 10.0 mi North 20.7 mph 32.2 mph N/A   Clear
8:35 PM 42.8 °F 34.3 °F 18.1 °F 37% 29.87 in 10.0 mi NNW 19.6 mph 25.3 mph N/A   Clear
8:38 PM 42.6 °F 33.8 °F 18.0 °F 37% 29.87 in 10.0 mi North 20.7 mph 27.6 mph N/A   Scattered Clouds
9:15 PM 42.8 °F 33.1 °F 17.6 °F 36% 29.85 in 10.0 mi North 25.3 mph 34.5 mph N/A   Clear
9:35 PM 42.8 °F 34.8 °F 19.4 °F 39% 29.84 in 10.0 mi NNW 17.3 mph 29.9 mph N/A   Clear
9:55 PM 41.0 °F 31.4 °F 19.4 °F 42% 29.83 in 10.0 mi North 21.9 mph 33.4 mph N/A   Clear
10:35 PM 41.0 °F 31.9 °F 19.4 °F 42% 29.81 in 10.0 mi North 19.6 mph 34.5 mph N/A   Scattered Clouds
10:41 PM 40.6 °F 30.7 °F 19.6 °F 43% 29.81 in 10.0 mi North 23.0 mph 36.8 mph N/A   Scattered Clouds
10:54 PM 40.5 °F 30.0 °F 19.6 °F 43% 29.80 in 10.0 mi North 25.3 mph 41.4 mph N/A   Clear
11:15 PM 40.3 °F 29.9 °F 19.9 °F 44% 29.78 in 10.0 mi North 24.2 mph 33.4 mph N/A   Clear
11:34 PM 40.3 °F 30.4 °F 20.1 °F 45% 29.77 in 10.0 mi North 21.9 mph 39.1 mph N/A   Clear
11:54 PM 39.9 °F 30.2 °F 20.7 °F 46% 29.76 in 10.0 mi North 20.7 mph 35.7 mph N/A   Scattered Clouds
11:55 PM 39.9 °F 30.0 °F 20.7 °F 46% 29.76 in 10.0 mi NNW 21.9 mph 35.7 mph N/A   Scattered Clouds